[[{"header":{"parameterUnit":"m.s-1","parameterCategory":1,"la1":30.2991,"la2":30.254,"lo1":-89.0895,"lo2":-89.0444,"dy":0.0017,"dx":0.0017,"nx":28,"ny":28,"refTime":"2023-09-19T09:00:00:Z","depth":0,"parameterNumber":2,"parameterNumberName":"U-component_of_WINDS"},"data":[0,0,0,0,0,0,0,0,0,0,0,0,0,0,0,0,0,0,0,0,0,0,0,0,0,0,0,0,0,0,0,0,0,0,0,0,0,0,0,0,0,0,0,0,0,0,0,0,0,0,0,0,0,0,0,0,0,0,-5.8251,-5.8252,0,-5.8411,-5.8413,-5.8415,-5.848,-5.848,-5.848,-5.8479,-5.8629,-5.8634,-5.8638,0,0,0,0,0,0,0,0,0,0,0,0,0,-5.7988,-5.7992,-5.825,-5.8253,-5.8255,-5.8411,-5.8413,-5.8415,-5.848,-5.848,-5.8479,-5.8479,-5.8628,-5.8633,-5.8638,0,0,0,0,0,0,0,0,0,0,0,0,0,-5.812,-5.7994,-5.825,-5.8306,-5.8313,-5.841,-5.8413,-5.8416,-5.848,-5.848,-5.8479,-5.8479,-5.8626,-5.8633,-5.8639,-5.8688,0,0,-5.8659,-5.8661,0,0,0,0,0,0,0,0,-5.8112,-5.8129,-5.8296,-5.8303,-5.831,-5.8426,-5.8376,-5.8507,-5.848,-5.8416,-5.8479,-5.8479,-5.8561,-5.8573,-5.8603,-5.8695,-5.8702,-5.8659,-5.8663,-5.8666,-5.8668,0,0,0,0,0,0,0,-5.8103,-5.8123,-5.8314,-5.8298,-5.8307,-5.8319,-5.8337,-5.8401,-5.8489,-5.8422,-5.8427,-5.8446,-5.8565,-5.8597,-5.8607,-5.8704,-5.8659,-5.8665,-5.8669,-5.8671,-5.8845,-5.8845,0,0,0,0,0,0,-5.8086,-5.8115,-5.8309,-5.8319,-5.8209,-5.8324,-5.8345,-5.8389,-5.8489,-5.8504,-5.8446,-5.8448,-5.8586,-5.86,-5.8613,-5.8678,-5.8666,-5.8672,-5.8675,-5.8844,-5.8845,-5.8846,0,0,0,0,0,0,-5.8081,-5.8103,-5.8302,-5.8218,-5.8245,-5.833,-5.8378,-5.8392,-5.8425,-5.8507,-5.8522,-5.8464,-5.8586,-5.8604,-5.867,-5.8684,-5.8675,-5.8681,-5.8843,-5.8844,-5.8845,-5.8809,0,0,0,0,0,0,-5.8073,-5.8101,-5.8123,-5.8219,-5.8249,-5.836,-5.8379,-5.8396,-5.8438,-5.8442,-5.8528,-5.8541,-5.8587,-5.866,-5.8677,-5.8693,-5.8686,-5.8842,-5.8844,-5.8845,-5.8809,-5.8808,-5.8808,0,0,0,0,0,-5.8063,-5.8103,-5.8124,-5.8147,-5.828,-5.8361,-5.8378,-5.8435,-5.8438,-5.846,-5.8513,-5.8539,-5.868,-5.8667,-5.8685,-5.8704,-5.8842,-5.8843,-5.8845,-5.8809,-5.8808,-5.8808,0,0,0,0,0,0,-5.8002,-5.8117,-5.8141,-5.8214,-5.8278,-5.8372,-5.8401,-5.8432,-5.8492,-5.8493,-5.8556,-5.8575,-5.8636,-5.8676,-5.8659,-5.8757,-5.8763,-5.8768,-5.8729,-5.8729,-5.8729,-5.8717,-5.8691,0,0,0,0,0,-5.7998,-5.8059,-5.8154,-5.8209,-5.824,-5.8315,-5.8352,-5.8391,-5.8458,-5.8484,-5.8541,-5.8601,-5.866,-5.8697,-5.8755,-5.8815,-5.8834,-5.8837,-5.8837,-5.8836,-5.8839,-5.8875,-5.8877,-5.8851,-5.8851,-5.8851,0,0,-5.7987,-5.8058,-5.8092,-5.8198,-5.8252,-5.8311,-5.8337,-5.8397,-5.844,-5.8491,-5.856,-5.8604,-5.8674,-5.8739,-5.877,-5.8774,-5.8851,-5.8838,-5.8837,-5.8841,-5.8877,-5.8879,-5.8881,-5.8852,-5.8852,-5.8852,0,0,-5.8,-5.806,-5.8114,-5.8169,-5.8252,-5.8302,-5.8315,-5.8405,-5.8438,-5.8509,-5.8549,-5.8598,-5.8697,-5.8747,-5.8785,-5.8818,-5.8844,-5.8835,-5.8831,-5.8865,-5.8867,-5.8869,-5.8881,-5.8885,-5.8838,-5.8838,-5.8838,0,-5.7976,-5.807,-5.8135,-5.8195,-5.824,-5.8295,-5.8347,-5.8395,-5.8491,-5.8519,-5.8524,-5.8652,-5.8703,-5.878,-5.8788,-5.8817,-5.8832,-5.8825,-5.8863,-5.8865,-5.8868,-5.888,-5.8884,-5.8837,-5.8837,-5.8837,-5.8837,0,-5.8037,-5.8101,-5.8133,-5.8231,-5.8279,-5.8334,-5.8404,-5.8444,-5.8479,-5.8527,-5.8597,-5.8661,-5.8734,-5.8755,-5.8786,-5.8836,-5.8837,-5.8851,-5.8858,-5.8868,-5.888,-5.8885,-5.8834,-5.8835,-5.8835,-5.8836,0,0,-5.8014,-5.815,-5.816,-5.8206,-5.8303,-5.8352,-5.8408,-5.8485,-5.8518,-5.8581,-5.8629,-5.8713,-5.8728,-5.8771,-5.8809,-5.8839,-5.8861,-5.885,-5.8852,-5.885,-5.8919,-5.8908,-5.8912,-5.8879,-5.888,-5.8881,-5.8914,0,-5.8039,-5.815,-5.821,-5.8293,-5.8352,-5.8406,-5.8455,-5.8517,-5.8564,-5.8618,-5.8667,-5.8726,-5.8741,-5.8768,-5.88,-5.8852,-5.8876,-5.885,-5.8921,-5.8923,-5.8902,-5.8919,-5.8907,-5.8934,-5.8919,-5.8919,-5.892,0,-5.8084,-5.8154,-5.8244,-5.8337,-5.8363,-5.8407,-5.8483,-5.8535,-5.8605,-5.8637,-5.8687,-5.8725,-5.8784,-5.8786,-5.8866,-5.8848,-5.888,-5.891,-5.8912,-5.892,-5.8922,-5.8927,-5.8944,-5.8948,-5.8928,-5.8928,-5.8927,0,-5.8059,-5.8175,-5.8244,-5.8281,-5.839,-5.842,-5.8465,-5.8537,-5.8579,-5.8643,-5.8671,-5.8738,-5.8775,-5.8825,-5.888,-5.8877,-5.8954,-5.8961,-5.898,-5.8978,-5.8993,-5.8991,-5.9015,-5.9014,-5.9014,-5.9014,-5.9014,0,-5.8082,-5.8135,-5.8235,-5.8277,-5.8338,-5.8405,-5.8461,-5.851,-5.8574,-5.8624,-5.8672,-5.8717,-5.8787,-5.8839,-5.8882,-5.8941,-5.8957,-5.8982,-5.8993,-5.8978,-5.8975,-5.9,-5.8999,-5.9015,-5.9015,-5.9014,-5.9014,0,-5.8064,-5.8134,-5.8213,-5.8311,-5.8337,-5.8377,-5.8459,-5.85,-5.855,-5.8613,-5.8631,-5.8708,-5.8773,-5.8833,-5.8917,-5.8946,-5.9006,-5.9019,-5.8983,-5.8989,-5.9004,-5.9002,-5.9045,-5.9054,-5.9046,-5.9046,-5.9046,0,-5.8074,-5.8117,-5.8222,-5.8262,-5.8308,-5.8371,-5.8416,-5.8483,-5.8527,-5.8612,-5.8642,-5.8712,-5.8771,-5.8871,-5.8932,-5.8997,-5.9012,-5.9023,-5.9022,-5.9006,-5.9012,-5.9009,-5.9013,-5.9021,-5.9021,-5.9021,-5.9021,0,-5.8085,-5.8118,-5.8184,-5.8262,-5.8315,-5.8378,-5.8442,-5.8471,-5.8549,-5.8595,-5.8666,-5.8712,-5.8801,-5.8868,-5.8941,-5.8983,-5.9014,-5.9021,-5.9029,-5.9014,-5.8991,-5.9004,-5.8981,-5.9019,-5.9019,-5.9019,-5.9019,-5.902,-5.8082,-5.8123,-5.8204,-5.8275,-5.8332,-5.8391,-5.8436,-5.8493,-5.8554,-5.8636,-5.867,-5.874,-5.8809,-5.8911,-5.8953,-5.9006,-5.9013,-5.9024,-5.9026,-5.9028,-5.9025,-5.8984,-5.9019,-5.902,-5.902,-5.902,-5.902,0,-5.8095,-5.8151,-5.8216,-5.8307,-5.8363,-5.8393,-5.8465,-5.8508,-5.8571,-5.8636,-5.8695,-5.8774,-5.884,-5.8907,-5.8976,-5.9006,-5.9021,-5.9021,-5.9019,-5.9029,-5.9016,-5.9003,-5.9008,-5.9008,-5.9008,-5.9008,-5.9008,-5.9007,-5.8109,-5.8181,-5.8223,-5.8322,-5.8376,-5.845,-5.8489,-5.8542,-5.8595,-5.8683,-5.874,-5.8785,-5.885,-5.8924,-5.8985,-5.9003,-5.9025,-5.9021,-5.9042,-5.9029,-5.9029,-5.903,-5.9018,-5.9026,-5.9026,-5.9051,-5.9052,-5.9052]},{"header":{"parameterUnit":"m.s-1","parameterCategory":1,"la1":30.2991,"la2":30.254,"lo1":-89.0895,"lo2":-89.0444,"dy":0.0017,"dx":0.0017,"nx":28,"ny":28,"refTime":"2023-09-19T09:00:00:Z","depth":0,"parameterNumber":3,"parameterNumberName":"V-component_of_WINDS"},"data":[0,0,0,0,0,0,0,0,0,0,0,0,0,0,0,0,0,0,0,0,0,0,0,0,0,0,0,0,0,0,0,0,0,0,0,0,0,0,0,0,0,0,0,0,0,0,0,0,0,0,0,0,0,0,0,0,0,0,3.4716,3.4723,0,3.5309,3.5316,3.5323,3.5492,3.5489,3.5486,3.5483,3.6085,3.6104,3.6123,0,0,0,0,0,0,0,0,0,0,0,0,0,3.3722,3.3739,3.4716,3.4723,3.4731,3.5308,3.5316,3.5325,3.5493,3.5489,3.5485,3.5481,3.6079,3.6102,3.6124,0,0,0,0,0,0,0,0,0,0,0,0,0,3.4218,3.3745,3.4714,3.4884,3.4906,3.5307,3.5317,3.5327,3.5494,3.5489,3.5484,3.5479,3.6072,3.6099,3.6128,3.6401,0,0,3.6215,3.6227,0,0,0,0,0,0,0,0,3.4189,3.4254,3.4852,3.4873,3.4898,3.5322,3.5187,3.5687,3.5495,3.527,3.5483,3.5477,3.5835,3.5883,3.6004,3.6429,3.6455,3.6217,3.6235,3.6247,3.6255,0,0,0,0,0,0,0,3.4155,3.423,3.4951,3.486,3.4888,3.4929,3.4994,3.5283,3.5572,3.5289,3.5303,3.5371,3.5846,3.5976,3.602,3.6464,3.6217,3.6242,3.626,3.6271,3.714,3.7146,0,0,0,0,0,0,3.4092,3.42,3.4932,3.4968,3.4525,3.495,3.5023,3.5191,3.557,3.5623,3.5375,3.5377,3.593,3.5986,3.6042,3.6386,3.6247,3.6274,3.629,3.7134,3.7141,3.7148,0,0,0,0,0,0,3.407,3.4156,3.4908,3.4588,3.4687,3.4973,3.5159,3.5205,3.5335,3.5634,3.5686,3.5455,3.5928,3.6001,3.631,3.6409,3.6286,3.6312,3.7127,3.7136,3.7145,3.7077,0,0,0,0,0,0,3.4041,3.4147,3.4256,3.4589,3.4703,3.5168,3.5166,3.522,3.5385,3.5393,3.5723,3.5773,3.593,3.6267,3.6339,3.6447,3.6335,3.712,3.7131,3.7142,3.7072,3.7082,3.7092,0,0,0,0,0,3.4005,3.4213,3.4261,3.4348,3.4846,3.5174,3.5239,3.5417,3.5392,3.5503,3.5694,3.5763,3.6386,3.6297,3.6379,3.6497,3.7114,3.7128,3.7141,3.7067,3.708,3.7091,0,0,0,0,0,0,3.3882,3.426,3.4317,3.4639,3.4873,3.5202,3.5347,3.5425,3.567,3.5668,3.5876,3.5949,3.6243,3.6401,3.6295,3.678,3.6752,3.6782,3.6667,3.6682,3.6692,3.6648,3.6359,0,0,0,0,0,3.3893,3.413,3.4446,3.4699,3.4814,3.5059,3.5209,3.5326,3.5576,3.5676,3.589,3.6129,3.6379,3.6539,3.6785,3.7094,3.7168,3.7216,3.7225,3.7232,3.7256,3.743,3.7454,3.7192,3.7192,3.7191,0,0,3.3917,3.4152,3.4289,3.468,3.4876,3.5115,3.5142,3.5394,3.5573,3.5714,3.6019,3.6184,3.6464,3.6773,3.692,3.6914,3.7345,3.7249,3.7252,3.7274,3.7446,3.747,3.7492,3.7201,3.7199,3.7198,0,0,3.4083,3.4285,3.4519,3.4713,3.5009,3.517,3.5225,3.5543,3.5658,3.5968,3.6078,3.6291,3.6718,3.6912,3.7067,3.7302,3.7374,3.7376,3.7429,3.7595,3.7616,3.7635,3.7719,3.7746,3.7399,3.7399,3.7399,0,3.4076,3.4443,3.4628,3.4875,3.5043,3.5181,3.5418,3.5597,3.5956,3.6068,3.6055,3.6592,3.679,3.7146,3.7203,3.7324,3.7392,3.7341,3.7598,3.762,3.7641,3.7722,3.7753,3.7397,3.7397,3.7398,3.7398,0,3.4418,3.467,3.4822,3.5167,3.5352,3.5592,3.5811,3.5975,3.6074,3.6235,3.6547,3.6789,3.7086,3.7178,3.7278,3.7548,3.7535,3.7557,3.7533,3.7661,3.7741,3.7774,3.7395,3.7395,3.7396,3.7396,0,0,3.4528,3.497,3.5023,3.5181,3.5515,3.5712,3.5955,3.6248,3.6384,3.6625,3.6834,3.719,3.7212,3.7387,3.7509,3.7654,3.7823,3.766,3.7669,3.7681,3.8135,3.8116,3.815,3.7872,3.7879,3.7884,3.8111,0,3.4737,3.5182,3.5354,3.5716,3.595,3.6082,3.6295,3.652,3.6677,3.6896,3.7067,3.7316,3.7327,3.7434,3.7583,3.7771,3.7917,3.7757,3.8067,3.8076,3.7994,3.8192,3.8175,3.8378,3.8144,3.8149,3.8153,0,3.5042,3.5288,3.5673,3.5976,3.6081,3.6269,3.6549,3.6757,3.7014,3.7117,3.731,3.7422,3.768,3.7637,3.7993,3.788,3.8016,3.8127,3.8139,3.8176,3.8123,3.8235,3.8447,3.8477,3.8205,3.8201,3.8197,0,3.5083,3.551,3.5796,3.5926,3.6287,3.6416,3.6571,3.6825,3.6988,3.723,3.7338,3.7606,3.7754,3.7958,3.8138,3.809,3.8477,3.8449,3.8569,3.8564,3.8646,3.8639,3.8884,3.8731,3.8731,3.873,3.873,0,3.5301,3.5531,3.5819,3.5995,3.6255,3.6449,3.67,3.6864,3.7087,3.7295,3.7424,3.7616,3.7842,3.8061,3.8203,3.8475,3.8541,3.863,3.8665,3.862,3.8608,3.8713,3.8704,3.8739,3.8737,3.8735,3.8734,0,3.5393,3.5595,3.5915,3.623,3.6314,3.6492,3.676,3.6934,3.7094,3.7355,3.7427,3.7678,3.7943,3.8141,3.8484,3.8579,3.887,3.8906,3.8783,3.8802,3.891,3.8897,3.9232,3.9285,3.9094,3.9096,3.9097,0,3.5519,3.57,3.6033,3.6182,3.6337,3.6576,3.6743,3.6938,3.7106,3.741,3.7547,3.782,3.8051,3.8466,3.8678,3.8939,3.8984,3.9083,3.9024,3.8972,3.8986,3.8973,3.8991,3.9091,3.9092,3.9093,3.9094,0,3.5722,3.5812,3.6049,3.6321,3.6517,3.6739,3.6964,3.7078,3.7312,3.7494,3.7767,3.7944,3.8294,3.8563,3.8845,3.9003,3.9087,3.911,3.9152,3.9108,3.9029,3.9073,3.8806,3.9102,3.9101,3.9101,3.91,3.91,3.5837,3.6003,3.6263,3.6521,3.671,3.6916,3.7095,3.7276,3.7508,3.7809,3.7908,3.8189,3.8438,3.8827,3.8986,3.9207,3.9207,3.9267,3.9283,3.9295,3.9291,3.8992,3.9259,3.9259,3.9259,3.9259,3.9259,0,3.6047,3.622,3.6456,3.6766,3.6968,3.7029,3.728,3.7445,3.7691,3.7917,3.8139,3.8451,3.8711,3.8941,3.9212,3.9344,3.9389,3.9408,3.9401,3.9436,3.9276,3.9213,3.9367,3.9367,3.9367,3.9367,3.9367,3.9367,3.618,3.6464,3.6584,3.696,3.7132,3.741,3.7547,3.7736,3.7917,3.826,3.8477,3.8626,3.8853,3.914,3.938,3.9441,3.9534,3.9544,3.9614,3.9461,3.9447,3.9435,3.9377,3.9563,3.9563,3.9756,3.9758,3.9759]}]]